Regional Weather Roundup
Issued by NWS

Home | Current Version | Previous Version | Text Only | Print | Product List | Glossary Off
Versions: 1 2 3 4 5 6 7 8 9 10 11 12 13 14 15 16 17 18 19 20 21 22 23 24 25 26 27 28 29 30 31 32 33 34 35 36 37 38 39 40 41 42 43 44 45 46 47 48 49 50

000
ASUS43 KLOT 300808
RWRIL

ILLINOIS REGIONAL WEATHER ROUNDUP
NATIONAL WEATHER SERVICE CHICAGO/ROMEOVILLE IL
300 AM CDT TUE JUN 30 2015

NOTE: "FAIR" INDICATES FEW OR NO CLOUDS BELOW 12,000 FEET WITH NO
SIGNIFICANT WEATHER AND/OR OBSTRUCTIONS TO VISIBILITY.

* THESE STATIONS ARE NOT UNDER NWS QUALITY CONTROL. THEY ALSO MAY NOT
  REPORT WEATHER SUCH AS PRECIPITATION OR FOG.

ILZ001-002-007-009-015-016-024-300900-
NORTHWEST ILLINOIS

CITY           SKY/WX    TMP DP  RH WIND       PRES   REMARKS
MOLINE         PTCLDY    64  61  90 SW3       29.81S
STERLING*      PTCLDY    63  61  94 CALM      29.81S
SAVANNA*       PTCLDY    63  60  91 NW5       29.79F
$$

ILZ003-004-008-010-011-017-018-300900-
NORTH CENTRAL ILLINOIS

CITY           SKY/WX    TMP DP  RH WIND       PRES   REMARKS
ROCKFORD       MOCLDY    62  59  90 W5        29.81S
FREEPORT*        N/A     59  59  99 W3        29.82S FOG
ROCHELLE*      MOCLDY    61  60  97 CALM      29.80F
DE KALB*       PTCLDY    60  59  96 NW6       29.80R
PERU*          CLOUDY    65  63  93 CALM      29.81R
$$

ILZ005-006-012>014-019>023-300900-
NORTHEAST ILLINOIS

CITY           SKY/WX    TMP DP  RH WIND       PRES   REMARKS
CHICAGO-OHARE  CLOUDY    65  63  93 W3        29.76F
CHICAGO-MIDWAY CLOUDY    67  65  93 SW5       29.77S FOG
AURORA         PTCLDY    63  60  90 NW6       29.79R
LANSING*       MOCLDY    64  61  92 W3        29.78S
JOLIET*        MOCLDY    66  63  92 CALM      29.78S
WAUKEGAN       FOG       60  59  96 CALM      29.76S VSB 3/4
DUPAGE AIRPORT MOCLDY    63  61  93 W3        29.77S
KANKAKEE*      LGT RAIN  66  65  97 CALM      29.80R
WHEELING       MOCLDY    66  63  90 W5        29.78S
MORRIS*        MOCLDY    64  61  91 SW6       29.77R
ROMEOVILLE*    DRIZZLE   64  64  97 W5        29.79R
NORTHERLY ISL    N/A     66  63  90 S8          N/A
$$

LMZ740>746-300900-
SOUTHERN LAKE MICHIGAN

STATION/POSITION SKY/WX   TEMP    WIND        PRES    VSBY  WAVE
                          AIR SEA DIR/SP/G                  HT/PER
                          (F)     (DEG/KT/KT) (MB)    (MI)  (FT/S)
HARRISON CRIB              66     200/  8/ 11   N/A
BURNHAM HARBOR             66     200/  6/  8   N/A
CALUMET HARBOR             66     190/  4/  5   N/A
BURNS HARBOR               65     170/  5/  8 1008.8F
MICHIGAN CITY              63     130/  9/ 11   N/A
MICHIGAN CITY 6N           64 64  190/  6/  8   N/A           1
ST. JOSEPH                 63 64                N/A           1
$$

ILZ025>027-034>036-040-047-049-050-058-095>099-300900-
WEST-CENTRAL ILLINOIS

CITY           SKY/WX    TMP DP  RH WIND       PRES   REMARKS
QUINCY         CLEAR     66  64  93 SW6       29.86S
GALESBURG*     MOCLDY    65  63  90 CALM      29.82R
MACOMB*        PTCLDY    65  64  99 W3        29.85F FOG
JACKSONVILLE*  CLEAR     69  66  91 SW6       29.85S
PITTSFIELD*    CLEAR     68  65  89 W5        29.87F
$$

ILZ028>032-037-038-041>044-048-051>054-059>061-300900-
CENTRAL ILLINOIS

CITY           SKY/WX    TMP DP  RH WIND       PRES   REMARKS
PONTIAC        MOCLDY    67  66  95 SW7       29.82R
BLOOMINGTON    MOCLDY    67  66  96 SW7       29.83F
DECATUR        PTCLDY    69  65  86 SW7       29.83F
PEORIA         MOCLDY    67  63  87 CALM      29.81F
LACON*         CLOUDY    64  63  94 SW3       29.80S
LINCOLN*       PTCLDY    68  65  92 CALM      29.84S
SPRINGFIELD    CLEAR     67  64  90 W6        29.84F
TAYLORVILLE    PTCLDY    68  64  88 SW8       29.84F
$$

ILZ033-039-045-046-055>057-062-063-300900-
EAST-CENTRAL ILLINOIS

CITY           SKY/WX    TMP DP  RH WIND       PRES   REMARKS
CHAMPAIGN      CLOUDY    67  65  93 CALM      29.83S
DANVILLE*      RAIN      63  62  97 SW6       29.79F
RANTOUL*       MOCLDY    65  64  94 S6        29.82F
MATTOON        MOCLDY    67  64  90 SW7       29.83F
PARIS*         CLOUDY    67  62  85 N5        29.85R THUNDER
$$

ILZ079-100>102-300900-
SOUTHWEST ILLINOIS

CITY           SKY/WX    TMP DP  RH WIND       PRES   REMARKS
ALTON          CLEAR     68  68 100 CALM      29.87R
BELLEVILLE     CLEAR     67  67 100 SW5       29.85F
CAHOKIA*       CLEAR     68  66  93 CALM      29.86F FOG
SPARTA*        CLEAR     69  67  92 CALM      29.88S
$$

ILZ064>066-069>071-074>076-080>082-084>086-088>090-092>094-300900-
SOUTH-CENTRAL ILLINOIS

CITY           SKY/WX    TMP DP  RH WIND       PRES   REMARKS
CARBONDALE     MOCLDY    73  67  81 CALM      29.88S
CAIRO*         CLEAR     72  70  92 SW3       29.87F
EFFINGHAM*     MOCLDY    66  63  89 CALM      29.87R
MARION         MOCLDY    72  66  83 CALM      29.89F
MT. VERNON     MOCLDY    68  63  83 CALM      29.87F
CENTRALIA*     PTCLDY    67  64  90 CALM      29.87S
SALEM*         CLEAR     69  65  89 CALM      29.87R
METROPOLIS*    CLEAR     70  70 100 CALM      29.88F
$$

ILZ067-068-072-073-078-083-087-091-300900-
SOUTHEAST ILLINOIS

CITY           SKY/WX    TMP DP  RH WIND       PRES   REMARKS
LAWRENCEVILLE  CLEAR     65  63  93 CALM      29.86S
FLORA*         CLEAR     66  64  96 SW5       29.86S
FAIRFIELD*     MOCLDY    69  66  89 SW6       29.86R
HARRISBURG*    TSTM      67  64  90 N14G29    29.90R
ROBINSON*      CLEAR     64  63  97 SW5       29.85F
CARMI*         CLOUDY    71  62  73 SW10      29.87R THUNDER
$$

ABBREVIATIONS USED IN REMARKS
   TC - TEMPERATURE IN CELSIUS
  WCI - WIND CHILL INDEX
   HX - HEAT INDEX
  VSB - VISIBILITY
$$



USA.gov is the U.S. government's official web portal to all federal, state and local government web resources and services.